map of YMS home
Great Circle Mapper logo
YMS - Airport
Location
City:  Yurimaguas, Perú
Name:Moisés Benzaquén Rengifo Airport
ICAO / IATA:SPMS / YMS

Details
Type:Airport (Aerodrome, Airfield)
Latitude:5°53'38"S (-5.893771)
Longitude:76°07'06"W (-76.118210)
Datum:WGS 1984
Elevation:587 ft (179 m)
Runways:1
Longest:5912 × 98 ft (1802 × 30 m), paved

Time
Time Zone:UTC-5
Local Time:

Weather
METAR:SPMS 232300Z 00000KT 9999 BKN015 28/23 Q1011 RMK BIRD HAZARD 09/27 PP000
TAF:SPMS 231700Z 2318/2418 33003KT 9999 SCT020 SCT100 TX34/2320Z TN23/2410Z
TEMPO 2403/2408 8000 BKN015 SCT100
TEMPO 2409/2413 00000KT 8000 BCFG BKN010
BECMG 2413/2415 04003KT SCT030 SCT100

Related Locations
Nearby:
Farthest:RDN: 12388 mi / 19937 km
Redang, Pulau Redang, MY

Find:

   beyond  
but within

Other Information
Maps:
NOTAMs:
Links:
Sources:

  
flag of Perú   

Sectional Chart

Flight Planning
at skyvector.com

Satellite Image

Google Maps Satellite View

 

Copyright © 2004-2014 Karl L. Swartz. All rights reserved.
The Great Circle Mapper name and logo are trademarks of the Great Circle Mapper.
All other trademarks mentioned herein belong to their respective owners.
Please see credits for attibutions and further copyright information.

  Follow gcmap on Facebook Follow gcmap on Twitter

hCard Microformat

Geo Microformat